﻿ProjectID	SampleID	SampleType	TaxonomyID	UniqCodeType	UniqCode	SampleName	ScientificName	CommonName	CollectionYear	CollectionMonth	CollectionDay	SamplingTimeStartEnd	SamplingTimeAMPM	SamplingDuration	WeatherStartEnd	CollectionRegion	CollectionCountry	CollectionArea	CollectionLatitudeFrom	CollectionLatitudeTo	CollectionLongitudeFrom	CollectionLongitudeTo	Sex	TissueOrgan	TissueLipid	TissueMoist	Weight	WeightUnit	Length	LengthUnit	LengthType	GrowthStage	Age	Disease	TemperatureStartEnd	WaterTemperatureStartEnd	pH	DO	EC	EC_temp	Salinity	SS	WaterDepthM	TransparencyM	WaterColor	SedimentTemperatureStartEnd	SedimentDepthM	SedimentAppearance	SedimentColor	SedimentSurfaceColor	SedimentOdor	SedimentImpurities	SedimentMoistureOnSiteAnalysis	IgnitionLossOnSiteAnalysis	SoilDepthM	FlowRate	MeanPM10	MeanTotalSuspendedParticles	HumidityStartEnd	WindDirectionStartEnd	WindSpeedMSStartEnd	AmountOfCollectedAirStartEnd	Remarks	RegisterDate	UpdateDate
PRA000020	SAA000760	ST008	217509			CF1	"Carassius carassius"	"Crucian carp"	2011	11	2					Asia	Japan	Kumamoto	32.09472222	33.19527778	129.9402778	131.3294444	Female	Plasma			1000	g	32	cm	"Body length"																																	2017/1/13	2017/1/13
PRA000020	SAA000761	ST008	217509			CF2	"Carassius carassius"	"Crucian carp"	2011	11	2					Asia	Japan	Kumamoto	32.09472222	33.19527778	129.9402778	131.3294444	Female	Plasma			650	g	27	cm	"Body length"																																	2017/1/13	2017/1/13
PRA000020	SAA000762	ST008	217509			CF3	"Carassius carassius"	"Crucian carp"	2011	11	2					Asia	Japan	Kumamoto	32.09472222	33.19527778	129.9402778	131.3294444	Male	Plasma			630	g	27	cm	"Body length"																																	2017/1/13	2017/1/13
PRA000020	SAA000763	ST008	217509			CF4	"Carassius carassius"	"Crucian carp"	2011	11	2					Asia	Japan	Kumamoto	32.09472222	33.19527778	129.9402778	131.3294444	Female	Plasma			510	g	27.5	cm	"Body length"																																	2017/1/13	2017/1/13
PRA000020	SAA000764	ST008	217509			CF5	"Carassius carassius"	"Crucian carp"	2011	11	2					Asia	Japan	Kumamoto	32.09472222	33.19527778	129.9402778	131.3294444	Female	Plasma			500	g	27	cm	"Body length"																																	2017/1/13	2017/1/13
PRA000020	SAA000765	ST008	217509			CF6	"Carassius carassius"	"Crucian carp"	2011	11	2					Asia	Japan	Kumamoto	32.09472222	33.19527778	129.9402778	131.3294444	Male	Plasma			550	g	25	cm	"Body length"																																	2017/1/13	2017/1/13
PRA000020	SAA000766	ST008	217509	es-BANK	"EF15380 "	CF7	"Carassius carassius"	"Crucian carp"	2013	8	8					Asia	Japan	Ehime	32.88472222	34.30166667	132.0125	133.6930556	Female	Plasma			640	g	27.5	cm	"Body length"																																	2017/1/13	2017/1/13
PRA000020	SAA000767	ST008	217509	es-BANK	"EF15381 "	CF8	"Carassius carassius"	"Crucian carp"	2013	8	8					Asia	Japan	Ehime	32.88472222	34.30166667	132.0125	133.6930556	Female	Plasma			590	g	27	cm	"Body length"																																	2017/1/13	2017/1/13
PRA000020	SAA000768	ST008	217509	es-BANK	"EF15382 "	CF9	"Carassius carassius"	"Crucian carp"	2013	8	8					Asia	Japan	Ehime	32.88472222	34.30166667	132.0125	133.6930556	Female	Plasma			800	g	29	cm	"Body length"																																	2017/1/13	2017/1/13
PRA000020	SAA000769	ST008	217509	es-BANK	"EF15383 "	CF10	"Carassius carassius"	"Crucian carp"	2013	8	8					Asia	Japan	Ehime	32.88472222	34.30166667	132.0125	133.6930556	Female	Plasma			710	g	26.5	cm	"Body length"																																	2017/1/13	2017/1/13
PRA000020	SAA000770	ST008	217509	es-BANK	"EF15384 "	CF11	"Carassius carassius"	"Crucian carp"	2013	8	8					Asia	Japan	Ehime	32.88472222	34.30166667	132.0125	133.6930556	unknown	Plasma			150	g	16.5	cm	"Body length"																																	2017/1/13	2017/1/13
PRA000020	SAA000771	ST008	7962	es-BANK	"EF15385 "	CF12	"Cyprinus carpio"	"Common carp"	2013	8	8					Asia	Japan	Ehime	32.88472222	34.30166667	132.0125	133.6930556	unknown	Plasma			270	g	22	cm	"Body length"																																	2017/1/13	2017/1/13
PRA000020	SAA000772	ST008	7962	es-BANK	"EF15386 "	CF13	"Cyprinus carpio"	"Common carp"	2013	8	8					Asia	Japan	Ehime	32.88472222	34.30166667	132.0125	133.6930556	Male	Plasma			1600	g	42.5	cm	"Body length"																																	2017/1/13	2017/1/13
PRA000020	SAA000773	ST008	7962	es-BANK	"EF15387 "	CF14	"Cyprinus carpio"	"Common carp"	2013	12	3					Asia	Japan	Ehime	32.88472222	34.30166667	132.0125	133.6930556	Female	Plasma			2550	g	49	cm	"Body length"																																	2017/1/13	2017/1/13
PRA000020	SAA000774	ST008	7962	es-BANK	"EF15388 "	CF15	"Cyprinus carpio"	"Common carp"	2013	12	3					Asia	Japan	Ehime	32.88472222	34.30166667	132.0125	133.6930556	Female	Plasma			3100	g	51	cm	"Body length"																																	2017/1/13	2017/1/13
PRA000020	SAA000775	ST008	7962	es-BANK	"EF15389 "	CF16	"Cyprinus carpio"	"Common carp"	2013	12	3					Asia	Japan	Ehime	32.88472222	34.30166667	132.0125	133.6930556	Female	Plasma			4150	g	55	cm	"Body length"																																	2017/1/13	2017/1/13
PRA000020	SAA000776	ST008	7962	es-BANK	"EF15390 "	CF17	"Cyprinus carpio"	"Common carp"	2013	12	3					Asia	Japan	Ehime	32.88472222	34.30166667	132.0125	133.6930556	Female	Plasma			3050	g	54	cm	"Body length"																																	2017/1/13	2017/1/13
PRA000020	SAA000777	ST008	7962	es-BANK	"EF15391 "	CF18	"Cyprinus carpio"	"Common carp"	2013	12	3					Asia	Japan	Ehime	32.88472222	34.30166667	132.0125	133.6930556	Female	Plasma			700	g	30	cm	"Body length"																																	2017/1/13	2017/1/13
PRA000020	SAA000778	ST008	7962	es-BANK	EF15392	CF19	"Cyprinus carpio"	"Common carp"	2014	4	23					Asia	Japan	Ehime	32.88472222	34.30166667	132.0125	133.6930556	Male	Plasma			2450	g	51.5	cm	"Body length"																																	2017/1/13	2017/1/13
PRA000020	SAA000779	ST008	217509	es-BANK	EF15393	CF20	"Carassius carassius"	"Crucian carp"	2014	4	23					Asia	Japan	Ehime	32.88472222	34.30166667	132.0125	133.6930556	Female	Plasma			850	g	29.5	cm	"Body length"																																	2017/1/13	2017/1/13
PRA000020	SAA000780	ST008	217509	es-BANK	"EF15394 "	CF21	"Carassius carassius"	"Crucian carp"	2014	4	23					Asia	Japan	Ehime	32.88472222	34.30166667	132.0125	133.6930556	Female	Plasma			650	g	26	cm	"Body length"																																	2017/1/13	2017/1/13
PRA000020	SAA000781	ST008	7962	es-BANK	"EF15395 "	CF22	"Cyprinus carpio"	"Common carp"	2014	4	23					Asia	Japan	Ehime	32.88472222	34.30166667	132.0125	133.6930556	Female	Plasma			1450	g	38	cm	"Body length"																																	2017/1/13	2017/1/13
PRA000020	SAA000782	ST008	7962	es-BANK	"EF15396 "	CF23	"Cyprinus carpio"	"Common carp"	2014	4	23					Asia	Japan	Ehime	32.88472222	34.30166667	132.0125	133.6930556	Female	Plasma			1700	g	40.5	cm	"Body length"																																	2017/1/13	2017/1/13
PRA000020	SAA000783	ST008	7962	es-BANK	"EF15397 "	CF24	"Cyprinus carpio"	"Common carp"	2014	4	23					Asia	Japan	Ehime	32.88472222	34.30166667	132.0125	133.6930556	Female	Plasma			2750	g	49	cm	"Body length"																																	2017/1/13	2017/1/13
PRA000020	SAA000784	ST008	217509	es-BANK	"EF15380 "	CF7	"Carassius carassius"	"Crucian carp"	2013	8	8					Asia	Japan	Ehime	32.88472222	34.30166667	132.0125	133.6930556	Female	Brain			640	g	27.5	cm	"Body length"																																	2017/1/13	2017/1/13
PRA000020	SAA000785	ST008	217509	es-BANK	"EF15381 "	CF8	"Carassius carassius"	"Crucian carp"	2013	8	8					Asia	Japan	Ehime	32.88472222	34.30166667	132.0125	133.6930556	Female	Brain			590	g	27	cm	"Body length"																																	2017/1/13	2017/1/13
PRA000020	SAA000786	ST008	217509	es-BANK	"EF15382 "	CF9	"Carassius carassius"	"Crucian carp"	2013	8	8					Asia	Japan	Ehime	32.88472222	34.30166667	132.0125	133.6930556	Female	Brain			800	g	29	cm	"Body length"																																	2017/1/13	2017/1/13
PRA000020	SAA000787	ST008	217509	es-BANK	"EF15383 "	CF10	"Carassius carassius"	"Crucian carp"	2013	8	8					Asia	Japan	Ehime	32.88472222	34.30166667	132.0125	133.6930556	Female	Brain			710	g	26.5	cm	"Body length"																																	2017/1/13	2017/1/13
PRA000020	SAA000788	ST008	217509	es-BANK	"EF15384 "	CF11	"Carassius carassius"	"Crucian carp"	2013	8	8					Asia	Japan	Ehime	32.88472222	34.30166667	132.0125	133.6930556	unknown	Brain			150	g	16.5	cm	"Body length"																																	2017/1/13	2017/1/13
PRA000020	SAA000789	ST008	7962	es-BANK	"EF15385 "	CF12	"Cyprinus carpio"	"Common carp"	2013	8	8					Asia	Japan	Ehime	32.88472222	34.30166667	132.0125	133.6930556	unknown	Brain			270	g	22	cm	"Body length"																																	2017/1/13	2017/1/13
PRA000020	SAA000790	ST008	7962	es-BANK	"EF15386 "	CF13	"Cyprinus carpio"	"Common carp"	2013	8	8					Asia	Japan	Ehime	32.88472222	34.30166667	132.0125	133.6930556	Male	Brain			1600	g	42.5	cm	"Body length"																																	2017/1/13	2017/1/13
PRA000020	SAA000791	ST008	7962	es-BANK	"EF15387 "	CF14	"Cyprinus carpio"	"Common carp"	2013	12	3					Asia	Japan	Ehime	32.88472222	34.30166667	132.0125	133.6930556	Female	Brain			2550	g	49	cm	"Body length"																																	2017/1/13	2017/1/13
PRA000020	SAA000792	ST008	7962	es-BANK	"EF15388 "	CF15	"Cyprinus carpio"	"Common carp"	2013	12	3					Asia	Japan	Ehime	32.88472222	34.30166667	132.0125	133.6930556	Female	Brain			3100	g	51	cm	"Body length"																																	2017/1/13	2017/1/13
PRA000020	SAA000793	ST008	7962	es-BANK	"EF15389 "	CF16	"Cyprinus carpio"	"Common carp"	2013	12	3					Asia	Japan	Ehime	32.88472222	34.30166667	132.0125	133.6930556	Female	Brain			4150	g	55	cm	"Body length"																																	2017/1/13	2017/1/13
PRA000020	SAA000794	ST008	7962	es-BANK	"EF15390 "	CF17	"Cyprinus carpio"	"Common carp"	2013	12	3					Asia	Japan	Ehime	32.88472222	34.30166667	132.0125	133.6930556	Female	Brain			3050	g	54	cm	"Body length"																																	2017/1/13	2017/1/13
PRA000020	SAA000795	ST008	7962	es-BANK	"EF15391 "	CF18	"Cyprinus carpio"	"Common carp"	2013	12	3					Asia	Japan	Ehime	32.88472222	34.30166667	132.0125	133.6930556	Female	Brain			700	g	30	cm	"Body length"																																	2017/1/13	2017/1/13
PRA000020	SAA000796	ST008	7962	es-BANK	EF15392	CF19	"Cyprinus carpio"	"Common carp"	2014	4	23					Asia	Japan	Ehime	32.88472222	34.30166667	132.0125	133.6930556	Male	Brain			2450	g	51.5	cm	"Body length"																																	2017/1/13	2017/1/13
PRA000020	SAA000797	ST008	217509	es-BANK	EF15393	CF20	"Carassius carassius"	"Crucian carp"	2014	4	23					Asia	Japan	Ehime	32.88472222	34.30166667	132.0125	133.6930556	Female	Brain			850	g	29.5	cm	"Body length"																																	2017/1/13	2017/1/13
PRA000020	SAA000798	ST008	217509	es-BANK	"EF15394 "	CF21	"Carassius carassius"	"Crucian carp"	2014	4	23					Asia	Japan	Ehime	32.88472222	34.30166667	132.0125	133.6930556	Female	Brain			650	g	26	cm	"Body length"																																	2017/1/13	2017/1/13
PRA000020	SAA000799	ST008	7962	es-BANK	"EF15395 "	CF22	"Cyprinus carpio"	"Common carp"	2014	4	23					Asia	Japan	Ehime	32.88472222	34.30166667	132.0125	133.6930556	Female	Brain			1450	g	38	cm	"Body length"																																	2017/1/13	2017/1/13
PRA000020	SAA000800	ST008	7962	es-BANK	"EF15396 "	CF23	"Cyprinus carpio"	"Common carp"	2014	4	23					Asia	Japan	Ehime	32.88472222	34.30166667	132.0125	133.6930556	Female	Brain			1700	g	40.5	cm	"Body length"																																	2017/1/13	2017/1/13
PRA000020	SAA000801	ST008	7962	es-BANK	"EF15397 "	CF24	"Cyprinus carpio"	"Common carp"	2014	4	23					Asia	Japan	Ehime	32.88472222	34.30166667	132.0125	133.6930556	Female	Brain			2750	g	49	cm	"Body length"																																	2017/1/13	2017/1/13
PRA000020	SAA000802	ST008	217509	es-BANK	"EF15380 "	CF7	"Carassius carassius"	"Crucian carp"	2013	8	8					Asia	Japan	Ehime	32.88472222	34.30166667	132.0125	133.6930556	Female	Liver			640	g	27.5	cm	"Body length"																																	2017/1/13	2017/1/13
PRA000020	SAA000803	ST008	217509	es-BANK	"EF15381 "	CF8	"Carassius carassius"	"Crucian carp"	2013	8	8					Asia	Japan	Ehime	32.88472222	34.30166667	132.0125	133.6930556	Female	Liver			590	g	27	cm	"Body length"																																	2017/1/13	2017/1/13
PRA000020	SAA000804	ST008	217509	es-BANK	"EF15382 "	CF9	"Carassius carassius"	"Crucian carp"	2013	8	8					Asia	Japan	Ehime	32.88472222	34.30166667	132.0125	133.6930556	Female	Liver			800	g	29	cm	"Body length"																																	2017/1/13	2017/1/13
PRA000020	SAA000805	ST008	217509	es-BANK	"EF15383 "	CF10	"Carassius carassius"	"Crucian carp"	2013	8	8					Asia	Japan	Ehime	32.88472222	34.30166667	132.0125	133.6930556	Female	Liver			710	g	26.5	cm	"Body length"																																	2017/1/13	2017/1/13
PRA000020	SAA000806	ST008	217509	es-BANK	"EF15384 "	CF11	"Carassius carassius"	"Crucian carp"	2013	8	8					Asia	Japan	Ehime	32.88472222	34.30166667	132.0125	133.6930556	unknown	Liver			150	g	16.5	cm	"Body length"																																	2017/1/13	2017/1/13
PRA000020	SAA000807	ST008	7962	es-BANK	"EF15385 "	CF12	"Cyprinus carpio"	"Common carp"	2013	8	8					Asia	Japan	Ehime	32.88472222	34.30166667	132.0125	133.6930556	unknown	Liver			270	g	22	cm	"Body length"																																	2017/1/13	2017/1/13
PRA000020	SAA000808	ST008	7962	es-BANK	"EF15386 "	CF13	"Cyprinus carpio"	"Common carp"	2013	8	8					Asia	Japan	Ehime	32.88472222	34.30166667	132.0125	133.6930556	Male	Liver			1600	g	42.5	cm	"Body length"																																	2017/1/13	2017/1/13
PRA000020	SAA000809	ST008	7962	es-BANK	"EF15387 "	CF14	"Cyprinus carpio"	"Common carp"	2013	12	3					Asia	Japan	Ehime	32.88472222	34.30166667	132.0125	133.6930556	Female	Liver			2550	g	49	cm	"Body length"																																	2017/1/13	2017/1/13
PRA000020	SAA000810	ST008	7962	es-BANK	"EF15388 "	CF15	"Cyprinus carpio"	"Common carp"	2013	12	3					Asia	Japan	Ehime	32.88472222	34.30166667	132.0125	133.6930556	Female	Liver			3100	g	51	cm	"Body length"																																	2017/1/13	2017/1/13
PRA000020	SAA000811	ST008	7962	es-BANK	"EF15389 "	CF16	"Cyprinus carpio"	"Common carp"	2013	12	3					Asia	Japan	Ehime	32.88472222	34.30166667	132.0125	133.6930556	Female	Liver			4150	g	55	cm	"Body length"																																	2017/1/13	2017/1/13
PRA000020	SAA000812	ST008	7962	es-BANK	"EF15390 "	CF17	"Cyprinus carpio"	"Common carp"	2013	12	3					Asia	Japan	Ehime	32.88472222	34.30166667	132.0125	133.6930556	Female	Liver			3050	g	54	cm	"Body length"																																	2017/1/13	2017/1/13
PRA000020	SAA000813	ST008	7962	es-BANK	"EF15391 "	CF18	"Cyprinus carpio"	"Common carp"	2013	12	3					Asia	Japan	Ehime	32.88472222	34.30166667	132.0125	133.6930556	Female	Liver			700	g	30	cm	"Body length"																																	2017/1/13	2017/1/13
PRA000020	SAA000814	ST008	7962	es-BANK	EF15392	CF19	"Cyprinus carpio"	"Common carp"	2014	4	23					Asia	Japan	Ehime	32.88472222	34.30166667	132.0125	133.6930556	Male	Liver			2450	g	51.5	cm	"Body length"																																	2017/1/13	2017/1/13
PRA000020	SAA000815	ST008	217509	es-BANK	EF15393	CF20	"Carassius carassius"	"Crucian carp"	2014	4	23					Asia	Japan	Ehime	32.88472222	34.30166667	132.0125	133.6930556	Female	Liver			850	g	29.5	cm	"Body length"																																	2017/1/13	2017/1/13
PRA000020	SAA000816	ST008	217509	es-BANK	"EF15394 "	CF21	"Carassius carassius"	"Crucian carp"	2014	4	23					Asia	Japan	Ehime	32.88472222	34.30166667	132.0125	133.6930556	Female	Liver			650	g	26	cm	"Body length"																																	2017/1/13	2017/1/13
PRA000020	SAA000817	ST008	7962	es-BANK	"EF15395 "	CF22	"Cyprinus carpio"	"Common carp"	2014	4	23					Asia	Japan	Ehime	32.88472222	34.30166667	132.0125	133.6930556	Female	Liver			1450	g	38	cm	"Body length"																																	2017/1/13	2017/1/13
PRA000020	SAA000818	ST008	7962	es-BANK	"EF15396 "	CF23	"Cyprinus carpio"	"Common carp"	2014	4	23					Asia	Japan	Ehime	32.88472222	34.30166667	132.0125	133.6930556	Female	Liver			1700	g	40.5	cm	"Body length"																																	2017/1/13	2017/1/13
PRA000020	SAA000819	ST008	7962	es-BANK	"EF15397 "	CF24	"Cyprinus carpio"	"Common carp"	2014	4	23					Asia	Japan	Ehime	32.88472222	34.30166667	132.0125	133.6930556	Female	Liver			2750	g	49	cm	"Body length"																																	2017/1/13	2017/1/13
PRA000020	SAA000820	ST008	217509	es-BANK	"EF15380 "	CF7	"Carassius carassius"	"Crucian carp"	2013	8	8					Asia	Japan	Ehime	32.88472222	34.30166667	132.0125	133.6930556	Female	Kidney			640	g	27.5	cm	"Body length"																																	2017/1/13	2017/1/13
PRA000020	SAA000821	ST008	217509	es-BANK	"EF15381 "	CF8	"Carassius carassius"	"Crucian carp"	2013	8	8					Asia	Japan	Ehime	32.88472222	34.30166667	132.0125	133.6930556	Female	Kidney			590	g	27	cm	"Body length"																																	2017/1/13	2017/1/13
PRA000020	SAA000822	ST008	217509	es-BANK	"EF15382 "	CF9	"Carassius carassius"	"Crucian carp"	2013	8	8					Asia	Japan	Ehime	32.88472222	34.30166667	132.0125	133.6930556	Female	Kidney			800	g	29	cm	"Body length"																																	2017/1/13	2017/1/13
PRA000020	SAA000823	ST008	217509	es-BANK	"EF15383 "	CF10	"Carassius carassius"	"Crucian carp"	2013	8	8					Asia	Japan	Ehime	32.88472222	34.30166667	132.0125	133.6930556	Female	Kidney			710	g	26.5	cm	"Body length"																																	2017/1/13	2017/1/13
PRA000020	SAA000824	ST008	217509	es-BANK	"EF15384 "	CF11	"Carassius carassius"	"Crucian carp"	2013	8	8					Asia	Japan	Ehime	32.88472222	34.30166667	132.0125	133.6930556	unknown	Kidney			150	g	16.5	cm	"Body length"																																	2017/1/13	2017/1/13
PRA000020	SAA000825	ST008	7962	es-BANK	"EF15385 "	CF12	"Cyprinus carpio"	"Common carp"	2013	8	8					Asia	Japan	Ehime	32.88472222	34.30166667	132.0125	133.6930556	unknown	Kidney			270	g	22	cm	"Body length"																																	2017/1/13	2017/1/13
PRA000020	SAA000826	ST008	7962	es-BANK	"EF15386 "	CF13	"Cyprinus carpio"	"Common carp"	2013	8	8					Asia	Japan	Ehime	32.88472222	34.30166667	132.0125	133.6930556	Male	Kidney			1600	g	42.5	cm	"Body length"																																	2017/1/13	2017/1/13
PRA000020	SAA000827	ST008	7962	es-BANK	"EF15387 "	CF14	"Cyprinus carpio"	"Common carp"	2013	12	3					Asia	Japan	Ehime	32.88472222	34.30166667	132.0125	133.6930556	Female	Kidney			2550	g	49	cm	"Body length"																																	2017/1/13	2017/1/13
PRA000020	SAA000828	ST008	7962	es-BANK	"EF15388 "	CF15	"Cyprinus carpio"	"Common carp"	2013	12	3					Asia	Japan	Ehime	32.88472222	34.30166667	132.0125	133.6930556	Female	Kidney			3100	g	51	cm	"Body length"																																	2017/1/13	2017/1/13
PRA000020	SAA000829	ST008	7962	es-BANK	"EF15389 "	CF16	"Cyprinus carpio"	"Common carp"	2013	12	3					Asia	Japan	Ehime	32.88472222	34.30166667	132.0125	133.6930556	Female	Kidney			4150	g	55	cm	"Body length"																																	2017/1/13	2017/1/13
PRA000020	SAA000830	ST008	7962	es-BANK	"EF15390 "	CF17	"Cyprinus carpio"	"Common carp"	2013	12	3					Asia	Japan	Ehime	32.88472222	34.30166667	132.0125	133.6930556	Female	Kidney			3050	g	54	cm	"Body length"																																	2017/1/13	2017/1/13
PRA000020	SAA000831	ST008	7962	es-BANK	"EF15391 "	CF18	"Cyprinus carpio"	"Common carp"	2013	12	3					Asia	Japan	Ehime	32.88472222	34.30166667	132.0125	133.6930556	Female	Kidney			700	g	30	cm	"Body length"																																	2017/1/13	2017/1/13
PRA000020	SAA000832	ST008	7962	es-BANK	EF15392	CF19	"Cyprinus carpio"	"Common carp"	2014	4	23					Asia	Japan	Ehime	32.88472222	34.30166667	132.0125	133.6930556	Male	Kidney			2450	g	51.5	cm	"Body length"																																	2017/1/13	2017/1/13
PRA000020	SAA000833	ST008	217509	es-BANK	EF15393	CF20	"Carassius carassius"	"Crucian carp"	2014	4	23					Asia	Japan	Ehime	32.88472222	34.30166667	132.0125	133.6930556	Female	Kidney			850	g	29.5	cm	"Body length"																																	2017/1/13	2017/1/13
PRA000020	SAA000834	ST008	217509	es-BANK	"EF15394 "	CF21	"Carassius carassius"	"Crucian carp"	2014	4	23					Asia	Japan	Ehime	32.88472222	34.30166667	132.0125	133.6930556	Female	Kidney			650	g	26	cm	"Body length"																																	2017/1/13	2017/1/13
PRA000020	SAA000835	ST008	7962	es-BANK	"EF15395 "	CF22	"Cyprinus carpio"	"Common carp"	2014	4	23					Asia	Japan	Ehime	32.88472222	34.30166667	132.0125	133.6930556	Female	Kidney			1450	g	38	cm	"Body length"																																	2017/1/13	2017/1/13
PRA000020	SAA000836	ST008	7962	es-BANK	"EF15396 "	CF23	"Cyprinus carpio"	"Common carp"	2014	4	23					Asia	Japan	Ehime	32.88472222	34.30166667	132.0125	133.6930556	Female	Kidney			1700	g	40.5	cm	"Body length"																																	2017/1/13	2017/1/13
PRA000020	SAA000837	ST008	7962	es-BANK	"EF15397 "	CF24	"Cyprinus carpio"	"Common carp"	2014	4	23					Asia	Japan	Ehime	32.88472222	34.30166667	132.0125	133.6930556	Female	Kidney			2750	g	49	cm	"Body length"																																	2017/1/13	2017/1/13
PRA000020	SAA000838	ST008	217509	es-BANK	"EF15380 "	CF7	"Carassius carassius"	"Crucian carp"	2013	8	8					Asia	Japan	Ehime	32.88472222	34.30166667	132.0125	133.6930556	Female	Muscle			640	g	27.5	cm	"Body length"																																	2017/1/13	2017/1/13
PRA000020	SAA000839	ST008	217509	es-BANK	"EF15381 "	CF8	"Carassius carassius"	"Crucian carp"	2013	8	8					Asia	Japan	Ehime	32.88472222	34.30166667	132.0125	133.6930556	Female	Muscle			590	g	27	cm	"Body length"																																	2017/1/13	2017/1/13
PRA000020	SAA000840	ST008	217509	es-BANK	"EF15382 "	CF9	"Carassius carassius"	"Crucian carp"	2013	8	8					Asia	Japan	Ehime	32.88472222	34.30166667	132.0125	133.6930556	Female	Muscle			800	g	29	cm	"Body length"																																	2017/1/13	2017/1/13
PRA000020	SAA000841	ST008	217509	es-BANK	"EF15383 "	CF10	"Carassius carassius"	"Crucian carp"	2013	8	8					Asia	Japan	Ehime	32.88472222	34.30166667	132.0125	133.6930556	Female	Muscle			710	g	26.5	cm	"Body length"																																	2017/1/13	2017/1/13
PRA000020	SAA000842	ST008	217509	es-BANK	"EF15384 "	CF11	"Carassius carassius"	"Crucian carp"	2013	8	8					Asia	Japan	Ehime	32.88472222	34.30166667	132.0125	133.6930556	unknown	Muscle			150	g	16.5	cm	"Body length"																																	2017/1/13	2017/1/13
PRA000020	SAA000843	ST008	7962	es-BANK	"EF15385 "	CF12	"Cyprinus carpio"	"Common carp"	2013	8	8					Asia	Japan	Ehime	32.88472222	34.30166667	132.0125	133.6930556	unknown	Muscle			270	g	22	cm	"Body length"																																	2017/1/13	2017/1/13
PRA000020	SAA000844	ST008	7962	es-BANK	"EF15386 "	CF13	"Cyprinus carpio"	"Common carp"	2013	8	8					Asia	Japan	Ehime	32.88472222	34.30166667	132.0125	133.6930556	Male	Muscle			1600	g	42.5	cm	"Body length"																																	2017/1/13	2017/1/13
PRA000020	SAA000845	ST008	7962	es-BANK	"EF15387 "	CF14	"Cyprinus carpio"	"Common carp"	2013	12	3					Asia	Japan	Ehime	32.88472222	34.30166667	132.0125	133.6930556	Female	Muscle			2550	g	49	cm	"Body length"																																	2017/1/13	2017/1/13
PRA000020	SAA000846	ST008	7962	es-BANK	"EF15388 "	CF15	"Cyprinus carpio"	"Common carp"	2013	12	3					Asia	Japan	Ehime	32.88472222	34.30166667	132.0125	133.6930556	Female	Muscle			3100	g	51	cm	"Body length"																																	2017/1/13	2017/1/13
PRA000020	SAA000847	ST008	7962	es-BANK	"EF15389 "	CF16	"Cyprinus carpio"	"Common carp"	2013	12	3					Asia	Japan	Ehime	32.88472222	34.30166667	132.0125	133.6930556	Female	Muscle			4150	g	55	cm	"Body length"																																	2017/1/13	2017/1/13
PRA000020	SAA000848	ST008	7962	es-BANK	"EF15390 "	CF17	"Cyprinus carpio"	"Common carp"	2013	12	3					Asia	Japan	Ehime	32.88472222	34.30166667	132.0125	133.6930556	Female	Muscle			3050	g	54	cm	"Body length"																																	2017/1/13	2017/1/13
PRA000020	SAA000849	ST008	7962	es-BANK	"EF15391 "	CF18	"Cyprinus carpio"	"Common carp"	2013	12	3					Asia	Japan	Ehime	32.88472222	34.30166667	132.0125	133.6930556	Female	Muscle			700	g	30	cm	"Body length"																																	2017/1/13	2017/1/13
PRA000020	SAA000850	ST008	7962	es-BANK	EF15392	CF19	"Cyprinus carpio"	"Common carp"	2014	4	23					Asia	Japan	Ehime	32.88472222	34.30166667	132.0125	133.6930556	Male	Muscle			2450	g	51.5	cm	"Body length"																																	2017/1/13	2017/1/13
PRA000020	SAA000851	ST008	217509	es-BANK	EF15393	CF20	"Carassius carassius"	"Crucian carp"	2014	4	23					Asia	Japan	Ehime	32.88472222	34.30166667	132.0125	133.6930556	Female	Muscle			850	g	29.5	cm	"Body length"																																	2017/1/13	2017/1/13
PRA000020	SAA000852	ST008	217509	es-BANK	"EF15394 "	CF21	"Carassius carassius"	"Crucian carp"	2014	4	23					Asia	Japan	Ehime	32.88472222	34.30166667	132.0125	133.6930556	Female	Muscle			650	g	26	cm	"Body length"																																	2017/1/13	2017/1/13
PRA000020	SAA000853	ST008	7962	es-BANK	"EF15395 "	CF22	"Cyprinus carpio"	"Common carp"	2014	4	23					Asia	Japan	Ehime	32.88472222	34.30166667	132.0125	133.6930556	Female	Muscle			1450	g	38	cm	"Body length"																																	2017/1/13	2017/1/13
PRA000020	SAA000854	ST008	7962	es-BANK	"EF15396 "	CF23	"Cyprinus carpio"	"Common carp"	2014	4	23					Asia	Japan	Ehime	32.88472222	34.30166667	132.0125	133.6930556	Female	Muscle			1700	g	40.5	cm	"Body length"																																	2017/1/13	2017/1/13
PRA000020	SAA000855	ST008	7962	es-BANK	"EF15397 "	CF24	"Cyprinus carpio"	"Common carp"	2014	4	23					Asia	Japan	Ehime	32.88472222	34.30166667	132.0125	133.6930556	Female	Muscle			2750	g	49	cm	"Body length"																																	2017/1/13	2017/1/13
PRA000020	SAA000856	ST008	217509	es-BANK	"EF15380 "	CF7	"Carassius carassius"	"Crucian carp"	2013	8	8					Asia	Japan	Ehime	32.88472222	34.30166667	132.0125	133.6930556	Female	Gills			640	g	27.5	cm	"Body length"																																	2017/1/13	2017/1/13
PRA000020	SAA000857	ST008	217509	es-BANK	"EF15381 "	CF8	"Carassius carassius"	"Crucian carp"	2013	8	8					Asia	Japan	Ehime	32.88472222	34.30166667	132.0125	133.6930556	Female	Gills			590	g	27	cm	"Body length"																																	2017/1/13	2017/1/13
PRA000020	SAA000858	ST008	217509	es-BANK	"EF15382 "	CF9	"Carassius carassius"	"Crucian carp"	2013	8	8					Asia	Japan	Ehime	32.88472222	34.30166667	132.0125	133.6930556	Female	Gills			800	g	29	cm	"Body length"																																	2017/1/13	2017/1/13
PRA000020	SAA000859	ST008	217509	es-BANK	"EF15383 "	CF10	"Carassius carassius"	"Crucian carp"	2013	8	8					Asia	Japan	Ehime	32.88472222	34.30166667	132.0125	133.6930556	Female	Gills			710	g	26.5	cm	"Body length"																																	2017/1/13	2017/1/13
PRA000020	SAA000860	ST008	217509	es-BANK	"EF15384 "	CF11	"Carassius carassius"	"Crucian carp"	2013	8	8					Asia	Japan	Ehime	32.88472222	34.30166667	132.0125	133.6930556	unknown	Gills			150	g	16.5	cm	"Body length"																																	2017/1/13	2017/1/13
PRA000020	SAA000861	ST008	7962	es-BANK	"EF15385 "	CF12	"Cyprinus carpio"	"Common carp"	2013	8	8					Asia	Japan	Ehime	32.88472222	34.30166667	132.0125	133.6930556	unknown	Gills			270	g	22	cm	"Body length"																																	2017/1/13	2017/1/13
PRA000020	SAA000862	ST008	7962	es-BANK	"EF15386 "	CF13	"Cyprinus carpio"	"Common carp"	2013	8	8					Asia	Japan	Ehime	32.88472222	34.30166667	132.0125	133.6930556	Male	Gills			1600	g	42.5	cm	"Body length"																																	2017/1/13	2017/1/13
PRA000020	SAA000863	ST008	7962	es-BANK	"EF15387 "	CF14	"Cyprinus carpio"	"Common carp"	2013	12	3					Asia	Japan	Ehime	32.88472222	34.30166667	132.0125	133.6930556	Female	Gills			2550	g	49	cm	"Body length"																																	2017/1/13	2017/1/13
PRA000020	SAA000864	ST008	7962	es-BANK	"EF15388 "	CF15	"Cyprinus carpio"	"Common carp"	2013	12	3					Asia	Japan	Ehime	32.88472222	34.30166667	132.0125	133.6930556	Female	Gills			3100	g	51	cm	"Body length"																																	2017/1/13	2017/1/13
PRA000020	SAA000865	ST008	7962	es-BANK	"EF15389 "	CF16	"Cyprinus carpio"	"Common carp"	2013	12	3					Asia	Japan	Ehime	32.88472222	34.30166667	132.0125	133.6930556	Female	Gills			4150	g	55	cm	"Body length"																																	2017/1/13	2017/1/13
PRA000020	SAA000866	ST008	7962	es-BANK	"EF15390 "	CF17	"Cyprinus carpio"	"Common carp"	2013	12	3					Asia	Japan	Ehime	32.88472222	34.30166667	132.0125	133.6930556	Female	Gills			3050	g	54	cm	"Body length"																																	2017/1/13	2017/1/13
PRA000020	SAA000867	ST008	7962	es-BANK	"EF15391 "	CF18	"Cyprinus carpio"	"Common carp"	2013	12	3					Asia	Japan	Ehime	32.88472222	34.30166667	132.0125	133.6930556	Female	Gills			700	g	30	cm	"Body length"																																	2017/1/13	2017/1/13
PRA000020	SAA000868	ST008	7962	es-BANK	EF15392	CF19	"Cyprinus carpio"	"Common carp"	2014	4	23					Asia	Japan	Ehime	32.88472222	34.30166667	132.0125	133.6930556	Male	Gills			2450	g	51.5	cm	"Body length"																																	2017/1/13	2017/1/13
PRA000020	SAA000869	ST008	217509	es-BANK	EF15393	CF20	"Carassius carassius"	"Crucian carp"	2014	4	23					Asia	Japan	Ehime	32.88472222	34.30166667	132.0125	133.6930556	Female	Gills			850	g	29.5	cm	"Body length"																																	2017/1/13	2017/1/13
PRA000020	SAA000870	ST008	217509	es-BANK	"EF15394 "	CF21	"Carassius carassius"	"Crucian carp"	2014	4	23					Asia	Japan	Ehime	32.88472222	34.30166667	132.0125	133.6930556	Female	Gills			650	g	26	cm	"Body length"																																	2017/1/13	2017/1/13
PRA000020	SAA000871	ST008	7962	es-BANK	"EF15395 "	CF22	"Cyprinus carpio"	"Common carp"	2014	4	23					Asia	Japan	Ehime	32.88472222	34.30166667	132.0125	133.6930556	Female	Gills			1450	g	38	cm	"Body length"																																	2017/1/13	2017/1/13
PRA000020	SAA000872	ST008	7962	es-BANK	"EF15396 "	CF23	"Cyprinus carpio"	"Common carp"	2014	4	23					Asia	Japan	Ehime	32.88472222	34.30166667	132.0125	133.6930556	Female	Gills			1700	g	40.5	cm	"Body length"																																	2017/1/13	2017/1/13
PRA000020	SAA000873	ST008	7962	es-BANK	"EF15397 "	CF24	"Cyprinus carpio"	"Common carp"	2014	4	23					Asia	Japan	Ehime	32.88472222	34.30166667	132.0125	133.6930556	Female	Gills			2750	g	49	cm	"Body length"																																	2017/1/13	2017/1/13
PRA000020	SAA000874	ST015				WK1	Water	"Ambient water from effluent-dominated streams"	2011	11	2					Asia	Japan	Kumamoto	32.09472222	33.19527778	129.9402778	131.3294444																																									"n=3; At 6-h intervals"	2017/1/13	2017/1/13
PRA000020	SAA000875	ST015				WE1	Water	"Ambient water from effluent-dominated streams"	2013	8	8					Asia	Japan	Ehime	32.88472222	34.30166667	132.0125	133.6930556																																									"n=5; At 6-h intervals"	2017/1/13	2017/1/13
PRA000020	SAA000876	ST015				WE2	Water	"Ambient water from effluent-dominated streams"	2013	12	3					Asia	Japan	Ehime	32.88472222	34.30166667	132.0125	133.6930556																																									"n=4; At 6-h intervals"	2017/1/13	2017/1/13
PRA000020	SAA000877	ST015				WE3	Water	"Ambient water from effluent-dominated streams"	2014	4	23					Asia	Japan	Ehime	32.88472222	34.30166667	132.0125	133.6930556																																									"n=4; At 6-h intervals"	2017/1/13	2017/1/13
PRA000020	SAA000878	ST015				WE4	Water	"Ambient water from effluent-dominated streams"	2014	8	18					Asia	Japan	Ehime	32.88472222	34.30166667	132.0125	133.6930556																																									n=1	2017/1/13	2017/1/13
PRA000020	SAA000879	ST010				P1	Plant	Periphytons	2014	8	18					Asia	Japan	Ehime	32.88472222	34.30166667	132.0125	133.6930556																																									"Periphyton communities on rocks collected from the same site as the collection site of fish and water."	2017/1/13	2017/1/13
PRA000124	SAA009350	ST013				A-water1	Water	"Brackish water"	2014	9						Aisa	India	"Kosasthalaiyar River, Chennai"	13.225		80.3157																7.07			29.7																							"Collected during wet seasons, but no rain before and during the sampling days."	2023/1/16	2023/1/16
PRA000124	SAA009351	ST013				A-water2	Water	"Brackish water"	2014	9						Aisa	India	"Kosasthalaiyar River, Chennai"	13.234		80.3161																7.78			28.9																							"Collected during wet seasons, but no rain before and during the sampling days."	2023/1/16	2023/1/16
PRA000124	SAA009352	ST013				A-water3	Water	"Brackish water"	2014	9						Aisa	India	"Kosasthalaiyar River, Chennai"	13.231		80.3199																7.3			32.2																							"Collected during wet seasons, but no rain before and during the sampling days."	2023/1/16	2023/1/16
PRA000124	SAA009353	ST013				B-water1	Water	"Brackish water"	2014	9						Aisa	India	"Adyar River, Chennai"	13.0116		80.259																7.9			31.5																							"Collected during wet seasons, but no rain before and during the sampling days."	2023/1/16	2023/1/16
PRA000124	SAA009354	ST013				B-water2	Water	"Brackish water"	2014	9						Aisa	India	"Adyar River, Chennai"	13.0233		80.2748																7.7			30																							"Collected during wet seasons, but no rain before and during the sampling days."	2023/1/16	2023/1/16
PRA000124	SAA009355	ST013				B-water3	Water	"Brackish water"	2014	9						Aisa	India	"Adyar River, Chennai"	13.0135		80.2767																8.25			30.5																							"Collected during wet seasons, but no rain before and during the sampling days."	2023/1/16	2023/1/16
PRA000124	SAA009356	ST013				C-water1	Water	"Brackish water"	2014	9						Aisa	India	"Muttukadu Backwaters, Chennai"	12.8031		80.248																8.17			35.1																							"Collected during wet seasons, but no rain before and during the sampling days."	2023/1/16	2023/1/16
PRA000124	SAA009357	ST013				C-water2	Water	"Brackish water"	2014	9						Aisa	India	"Muttukadu Backwaters, Chennai"	12.8053		80.2431																8.02			32.8																							"Collected during wet seasons, but no rain before and during the sampling days."	2023/1/16	2023/1/16
PRA000124	SAA009358	ST013				C-water3	Water	"Brackish water"	2014	9						Aisa	India	"Muttukadu Backwaters, Chennai"	12.8093		80.2453																8.68			32.8																							"Collected during wet seasons, but no rain before and during the sampling days."	2023/1/16	2023/1/16
PRA000124	SAA009359	ST013				C-water4	Water	"Brackish water"	2014	9						Aisa	India	"Muttukadu Backwaters, Chennai"	12.8099		80.2452																8.7			34.2																							"Collected during wet seasons, but no rain before and during the sampling days."	2023/1/16	2023/1/16
PRA000124	SAA009360	ST013				C-water5	Water	"Brackish water"	2014	9						Aisa	India	"Muttukadu Backwaters, Chennai"	12.8113		80.2463																7.3			31.8																							"Collected during wet seasons, but no rain before and during the sampling days."	2023/1/16	2023/1/16
PRA000124	SAA009361	ST015				D-water1	Water	"River water"	2014	9						Aisa	India	"Vrishabhavathi River, Bengaluru"	12.9455		77.5292																7.26			27																							"Collected during wet seasons, but no rain before and during the sampling days."	2023/1/16	2023/1/16
PRA000124	SAA009362	ST015				D-water2	Water	"River water"	2014	9						Aisa	India	"Vrishabhavathi River, Bengaluru"	12.9347		77.5179																7.16			26.8																							"Collected during wet seasons, but no rain before and during the sampling days."	2023/1/16	2023/1/16
PRA000124	SAA009363	ST015				D-water3	Water	"River water"	2014	9						Aisa	India	"Vrishabhavathi River, Bengaluru"	12.9357		77.5139																7.19			27.2																							"Collected during wet seasons, but no rain before and during the sampling days."	2023/1/16	2023/1/16
PRA000124	SAA009364	ST015				D-water4	Water	"River water"	2014	9						Aisa	India	"Vrishabhavathi River, Bengaluru"	12.9176		77.4913																7.17			26.6																							"Collected during wet seasons, but no rain before and during the sampling days."	2023/1/16	2023/1/16
PRA000124	SAA009365	ST015				D-water5	Water	"River water"	2014	9						Aisa	India	"Vrishabhavathi River, Bengaluru"	12.8729		77.4487																7.17			26																							"Collected during wet seasons, but no rain before and during the sampling days."	2023/1/16	2023/1/16
PRA000124	SAA009366	ST015				E-water1	Water	"River/reservoir water"	2014	9						Aisa	India	"Vrishabhavathi Reservoir, Bengaluru"	12.7607		77.4168																7.21			27.2																							"Collected during wet seasons, but no rain before and during the sampling days."	2023/1/16	2023/1/16
PRA000124	SAA009367	ST015				E-water1'	Water	"River/reservoir water"	2014	9						Aisa	India	"Vrishabhavathi Reservoir, Bengaluru"	12.7607		77.4168																7.03			26.8																							"Collected during wet seasons, but no rain before and during the sampling days."	2023/1/16	2023/1/16
PRA000124	SAA009368	ST015				F-water	Water	"Lake water"	2014	9						Aisa	India	"Gopahalli Lake, Bengaluru"	12.7281		77.416																8.37			26.5																							"Collected during wet seasons, but no rain before and during the sampling days."	2023/1/16	2023/1/16
PRA000124	SAA009369	ST015				D-water6	Water	"River water"	2015	9						Aisa	India	"Vrishabhavathi River, Bengaluru"	12.945		77.5339																7.13		86.1	29.6																							"Collected during wet seasons, but no rain before and during the sampling days."	2023/1/16	2023/1/16
PRA000124	SAA009370	ST015				D-water7	Water	"River water"	2015	9						Aisa	India	"Vrishabhavathi River, Bengaluru"	12.9454		77.5287																7.37		86.8	30																							"Collected during wet seasons, but no rain before and during the sampling days."	2023/1/16	2023/1/16
PRA000124	SAA009371	ST015				D-water8	Water	"River water"	2015	9						Aisa	India	"Vrishabhavathi River, Bengaluru"	12.9348		77.5179																7.39		92.8	29.5																							"Collected during wet seasons, but no rain before and during the sampling days."	2023/1/16	2023/1/16
PRA000124	SAA009372	ST015				D-water9	Water	"River water"	2015	9						Aisa	India	"Vrishabhavathi River, Bengaluru"	12.9354		77.5139																7.44		126.3	30.1																							"Collected during wet seasons, but no rain before and during the sampling days."	2023/1/16	2023/1/16
PRA000124	SAA009373	ST015				D-water10	Water	"River water"	2015	9						Aisa	India	"Vrishabhavathi River, Bengaluru"	12.9176		77.4913																7.59		106	29.4																							"Collected during wet seasons, but no rain before and during the sampling days."	2023/1/16	2023/1/16
PRA000124	SAA009374	ST015				E-water2	Water	"River/reservoir water"	2015	9						Aisa	India	"Vrishabhavathi Reservoir, Bengaluru"	12.7604		77.417																7.28		114.6	32																							"Collected during wet seasons, but no rain before and during the sampling days."	2023/1/16	2023/1/16
PRA000124	SAA009375	ST015				E-water2'	Water	"River/reservoir water"	2015	9						Aisa	India	"Vrishabhavathi Reservoir, Bengaluru"	12.7604		77.417																7.68		111.6	31.9																							"Collected during wet seasons, but no rain before and during the sampling days."	2023/1/16	2023/1/16
PRA000124	SAA009376	ST015				G-water1	Water	"Lake/pond/river water"	2015	9						Aisa	India	"Varthur Kere, Bengaluru"	12.9453		77.7469																7.51		99.6	27.9																							"Collected during wet seasons, but no rain before and during the sampling days."	2023/1/16	2023/1/16
PRA000124	SAA009377	ST015				G-water2	Water	"Lake/pond/river water"	2015	9						Aisa	India	"Varthur Kere, Bengaluru"	12.945		77.7473																7.54		98.1	27.5																							"Collected during wet seasons, but no rain before and during the sampling days."	2023/1/16	2023/1/16
PRA000124	SAA009378	ST015				G-water3	Water	"Lake/pond/river water"	2015	9						Aisa	India	"Varthur Kere, Bengaluru"	12.9409		77.6874																7.4		95.4	27.5																							"Collected during wet seasons, but no rain before and during the sampling days."	2023/1/16	2023/1/16
PRA000124	SAA009379	ST015				G-water4	Water	"Lake/pond/river water"	2015	9						Aisa	India	"Varthur Kere, Bengaluru"	12.946		77.6982																7.4		94.7	27.5																							"Collected during wet seasons, but no rain before and during the sampling days."	2023/1/16	2023/1/16
PRA000124	SAA009380	ST015				G-water5	Water	"Lake/pond/river water"	2015	9						Aisa	India	"Varthur Kere, Bengaluru"	12.9565		77.745																7.75		101	31.6																							"Collected during wet seasons, but no rain before and during the sampling days."	2023/1/16	2023/1/16
PRA000124	SAA009381	ST015				H-water	Water	"Lake/pond water"	2015	9						Aisa	India	"Ulsoor Lake, Bengaluru"	12.9847		77.6218																8.47		36.8	27.3																							"Collected during wet seasons, but no rain before and during the sampling days."	2023/1/16	2023/1/16
PRA000124	SAA009382	ST015				I-water	Water	"Lake/pond water"	2015	1						Aisa	Indoneasia	"Danau Sunter Lake, Jakarta"	-6.1456		106.8812																8.53		421	29.7																							"Collected during wet seasons, but no rain before and during the sampling days."	2023/1/16	2023/1/16
PRA000124	SAA009383	ST015				J-water	Water	"Lake/pond water"	2015	1						Aisa	Indoneasia	"Kemayoran Golf Lake, Jakarta"	-6.1375		106.8494																7.03		366	30.3																							"Collected during wet seasons, but no rain before and during the sampling days."	2023/1/16	2023/1/16
PRA000124	SAA009384	ST015				M-water1	Water	"Lake/pond water"	2015	1						Aisa	Indoneasia	"Setu Gintung Lake, Tangerang"	-6.3067		106.7639																7.44		17.8	29.6																							"Collected during wet seasons, but no rain before and during the sampling days."	2023/1/16	2023/1/16
PRA000124	SAA009385	ST015				M-water2	Water	"Lake/pond water"	2015	1						Aisa	Indoneasia	"Setu Gintung Lake, Tangerang"	-6.3023		106.7647																7.46		17.8	30.2																							"Collected during wet seasons, but no rain before and during the sampling days."	2023/1/16	2023/1/16
PRA000124	SAA009386	ST015				N-water	Water	"Lake/pond water"	2015	1						Aisa	Indoneasia	"Situ Rawa Cipondoh, Tangerang"	-6.1948		106.6716																7.53		28.2	30																							"Collected during wet seasons, but no rain before and during the sampling days."	2023/1/16	2023/1/16
PRA000124	SAA009387	ST015				O-water1	Water	"Stream water"	2015	1						Aisa	Indoneasia	"Kali Petukangan (PIZ), Jakarta"	-6.1894		106.9168																5.22		82.2	28.4																							"Collected during wet seasons, but no rain before and during the sampling days."	2023/1/16	2023/1/16
PRA000124	SAA009388	ST015				O-water2	Water	"Stream water"	2015	1						Aisa	Indoneasia	"Kali Petukangan (PIZ), Jakarta"	-6.1909		106.917																6.75		97.7	28.2																							"Collected during wet seasons, but no rain before and during the sampling days."	2023/1/16	2023/1/16
PRA000124	SAA009389	ST015				O-water3	Water	"Stream water"	2015	1						Aisa	Indoneasia	"Kali Petukangan (PIZ), Jakarta"	-6.1985		106.9172																7.29		57.8	28.7																							"Collected during wet seasons, but no rain before and during the sampling days."	2023/1/16	2023/1/16
PRA000124	SAA009390	ST015				O-water4	Water	"Stream water"	2015	1						Aisa	Indoneasia	"Kali Petukangan (PIZ), Jakarta"	-6.1866		106.9239																7.02		86.6	30.2																							"Collected during wet seasons, but no rain before and during the sampling days."	2023/1/16	2023/1/16
PRA000124	SAA009391	ST015				P-water1	Water	"River water"	2015	1						Aisa	Indoneasia	"Sunter River (downstream of PIZ), Jakarta"	-6.1934		106.9017																7.1		71.4	26.9																							"Collected during wet seasons, but no rain before and during the sampling days."	2023/1/16	2023/1/16
PRA000124	SAA009392	ST015				P-water2	Water	"River water"	2015	1						Aisa	Indoneasia	"Sunter River (downstream of PIZ), Jakarta"	-6.1837		106.9046																7.14		85.4	28.3																							"Collected during wet seasons, but no rain before and during the sampling days."	2023/1/16	2023/1/16
PRA000124	SAA009393	ST015				Q-water1	Water	"River water"	2015	1						Aisa	Indoneasia	"Cakung Drain (downstream of PIZ), Jakarta"	-6.1831		106.9289																6.85		93.4	28.6																							"Collected during wet seasons, but no rain before and during the sampling days."	2023/1/16	2023/1/16
PRA000124	SAA009394	ST015				Q-water2	Water	"River water"	2015	1						Aisa	Indoneasia	"Cakung Drain (downstream of PIZ), Jakarta"	-6.1587		106.9354																6.62		105.5	31																							"Collected during wet seasons, but no rain before and during the sampling days."	2023/1/16	2023/1/16
PRA000124	SAA009395	ST015				Q-water3	Water	"River water"	2015	1						Aisa	Indoneasia	"Cakung Drain (downstream of PIZ), Jakarta"	-6.1531		106.9384																6.64		109.8	30.7																							"Collected during wet seasons, but no rain before and during the sampling days."	2023/1/16	2023/1/16
PRA000124	SAA009396	ST015				Q-water4	Water	"River water"	2015	1						Aisa	Indoneasia	"Cakung Drain (downstream of PIZ), Jakarta"	-6.0979		106.9397																6.49		214	30.3																							"Collected during wet seasons, but no rain before and during the sampling days."	2023/1/16	2023/1/16
PRA000124	SAA009397	ST015				R-water1	Water	"Lake water"	2015	9						Aisa	Vietnam	"Yen So Lake, Hanoi"	20.9746		105.8651																7.37		52.4	30.4																							"Collected during wet seasons, but no rain before and during the sampling days."	2023/1/16	2023/1/16
PRA000124	SAA009398	ST015				R-water2	Water	"Lake water"	2015	9						Aisa	Vietnam	"Yen So Lake, Hanoi"	20.9717		105.8621																7.86		53.3	31																							"Collected during wet seasons, but no rain before and during the sampling days."	2023/1/16	2023/1/16
PRA000124	SAA009399	ST015				R-water3	Water	"Lake water"	2015	9						Aisa	Vietnam	"Yen So Lake, Hanoi"	20.9694		105.8588																8.28		48.1	32																							"Collected during wet seasons, but no rain before and during the sampling days."	2023/1/16	2023/1/16
PRA000124	SAA009400	ST015				R-water4	Water	"Lake water"	2015	9						Aisa	Vietnam	"Yen So Lake, Hanoi"	20.9646		105.8516																8.96		39.2	33.2																							"Collected during wet seasons, but no rain before and during the sampling days."	2023/1/16	2023/1/16
PRA000124	SAA009401	ST015				S-water1	Water	"River water"	2015	9						Aisa	Vietnam	"Da River, Hoa Binh"	20.8222		105.3378																7.74		17.5	27.8																							"Chosen as the control (unpoluted) site.; Collected during wet seasons, but no rain before and during the sampling days."	2023/1/16	2023/1/16
PRA000124	SAA009402	ST015				S-water2	Water	"River water"	2015	9						Aisa	Vietnam	"Da River, Hoa Binh"	20.8278		105.35																7.3		17.1	27.2																							"Chosen as the control (unpoluted) site.; Collected during wet seasons, but no rain before and during the sampling days."	2023/1/16	2023/1/16
PRA000124	SAA009403	ST015				S-water3	Water	"River water"	2015	9						Aisa	Vietnam	"Da River, Hoa Binh"	20.8524		105.3455																7.9		17.3	27.1																							"Chosen as the control (unpoluted) site.; Collected during wet seasons, but no rain before and during the sampling days."	2023/1/16	2023/1/16
PRA000124	SAA009404	ST008	48193			"A-Grey mullet1"	"Mugil cephalus"	"Flathead grey mullet"	2014	9						Aisa	India	"Kosasthalaiyar River, Chennai"	13.234		80.3161		Unknown	Plasma			87	g	17.7	cm																																	"Collected during wet seasons, but no rain before and during the sampling days."	2023/01/16	2023/01/16
PRA000124	SAA009405	ST008	48193			"A-Grey mullet2"	"Mugil cephalus"	"Flathead grey mullet"	2014	9						Aisa	India	"Kosasthalaiyar River, Chennai"	13.234		80.3161		Unknown	Plasma			114	g	20	cm																																	"Collected during wet seasons, but no rain before and during the sampling days."	2023/01/16	2023/01/16
PRA000124	SAA009406	ST008	48193			"A-Grey mullet3"	"Mugil cephalus"	"Flathead grey mullet"	2014	9						Aisa	India	"Kosasthalaiyar River, Chennai"	13.234		80.3161		Female	Plasma			57	g	14.5	cm																																	"Collected during wet seasons, but no rain before and during the sampling days."	2023/01/16	2023/01/16
PRA000124	SAA009407	ST008	48193			"A-Grey mullet4"	"Mugil cephalus"	"Flathead grey mullet"	2014	9						Aisa	India	"Kosasthalaiyar River, Chennai"	13.234		80.3161		Female	Plasma			52	g	13.5	cm																																	"Collected during wet seasons, but no rain before and during the sampling days."	2023/01/16	2023/01/16
PRA000124	SAA009408	ST008	48193			"A-Grey mullet5"	"Mugil cephalus"	"Flathead grey mullet"	2014	9						Aisa	India	"Kosasthalaiyar River, Chennai"	13.234		80.3161		Unknown	Plasma			44	g	13.5	cm																																	"Collected during wet seasons, but no rain before and during the sampling days."	2023/01/16	2023/01/16
PRA000124	SAA009409	ST008	48193			"B-Grey mullet1"	"Mugil cephalus"	"Flathead grey mullet"	2014	9						Aisa	India	"Adyar River, Chennai"	13.0135		80.2767		Unknown	Plasma			136	g	19.5	cm																																	"Collected during wet seasons, but no rain before and during the sampling days."	2023/01/16	2023/01/16
PRA000124	SAA009410	ST008	48193			"B-Grey mullet2"	"Mugil cephalus"	"Flathead grey mullet"	2014	9						Aisa	India	"Adyar River, Chennai"	13.0135		80.2767		Unknown	Plasma			138	g	19.5	cm																																	"Collected during wet seasons, but no rain before and during the sampling days."	2023/01/16	2023/01/16
PRA000124	SAA009411	ST008	48193			"B-Grey mullet3"	"Mugil cephalus"	"Flathead grey mullet"	2014	9						Aisa	India	"Adyar River, Chennai"	13.0135		80.2767		Female	Plasma			202	g	22.5	cm																																	"Collected during wet seasons, but no rain before and during the sampling days."	2023/01/16	2023/01/16
PRA000124	SAA009412	ST008	48193			"C-Grey mullet1"	"Mugil cephalus"	"Flathead grey mullet"	2014	9						Aisa	India	"Muttukadu Backwaters, Chennai"	12.8091		80.2452		Unknown	Plasma			201	g	22.5	cm																																	"Collected during wet seasons, but no rain before and during the sampling days."	2023/01/16	2023/01/16
PRA000124	SAA009413	ST008	48193			"C-Grey mullet2"	"Mugil cephalus"	"Flathead grey mullet"	2014	9						Aisa	India	"Muttukadu Backwaters, Chennai"	12.8091		80.2452		Unknown	Plasma			75	g	15.4	cm																																	"Collected during wet seasons, but no rain before and during the sampling days."	2023/01/16	2023/01/16
PRA000124	SAA009414	ST008	48193			"C-Grey mullet3"	"Mugil cephalus"	"Flathead grey mullet"	2014	9						Aisa	India	"Muttukadu Backwaters, Chennai"	12.8091		80.2452		Unknown	Plasma			57	g	14.7	cm																																	"Collected during wet seasons, but no rain before and during the sampling days."	2023/01/16	2023/01/16
PRA000124	SAA009415	ST008	48193			"C-Grey mullet4"	"Mugil cephalus"	"Flathead grey mullet"	2014	9						Aisa	India	"Muttukadu Backwaters, Chennai"	12.8105		80.2477		Unknown	Plasma			62	g	15.3	cm																																	"Collected during wet seasons, but no rain before and during the sampling days."	2023/01/16	2023/01/16
PRA000124	SAA009416	ST008	8139			C-Tilapia1	"Oreochromis spp."	Tilapia	2014	9						Aisa	India	"Muttukadu Backwaters, Chennai"	12.8091		80.2452		Unknown	Plasma			360	g	22.5	cm																																	"Collected during wet seasons, but no rain before and during the sampling days."	2023/01/16	2023/01/16
PRA000124	SAA009417	ST008	8139			C-Tilapia2	"Oreochromis spp."	Tilapia	2014	9						Aisa	India	"Muttukadu Backwaters, Chennai"	12.8091		80.2452		Unknown	Plasma			129	g	15	cm																																	"Collected during wet seasons, but no rain before and during the sampling days."	2023/01/16	2023/01/16
PRA000124	SAA009418	ST008	8139			C-Tilapia3	"Oreochromis spp."	Tilapia	2014	9						Aisa	India	"Muttukadu Backwaters, Chennai"	12.8091		80.2452		Unknown	Plasma			74	g	13.5	cm																																	"Collected during wet seasons, but no rain before and during the sampling days."	2023/01/16	2023/01/16
PRA000124	SAA009419	ST008	8139			C-Tilapia4	"Oreochromis spp."	Tilapia	2014	9						Aisa	India	"Muttukadu Backwaters, Chennai"	12.8105		80.2477		Unknown	Plasma			100	g	15.5	cm																																	"Collected during wet seasons, but no rain before and during the sampling days."	2023/01/16	2023/01/16
PRA000124	SAA009420	ST008	8139			C-Tilapia5	"Oreochromis spp."	Tilapia	2014	9						Aisa	India	"Muttukadu Backwaters, Chennai"	12.8105		80.2477		Unknown	Plasma			113	g	17	cm																																	"Collected during wet seasons, but no rain before and during the sampling days."	2023/01/16	2023/01/16
PRA000124	SAA009421	ST008	8139			C-Tilapia6	"Oreochromis spp."	Tilapia	2014	9						Aisa	India	"Muttukadu Backwaters, Chennai"	12.8105		80.2477		Unknown	Plasma			116	g	16	cm																																	"Collected during wet seasons, but no rain before and during the sampling days."	2023/01/16	2023/01/16
PRA000124	SAA009422	ST008	8139			C-Tilapia7	"Oreochromis spp."	Tilapia	2014	9						Aisa	India	"Muttukadu Backwaters, Chennai"	12.8105		80.2477		Unknown	Plasma			84	g	14	cm																																	"Collected during wet seasons, but no rain before and during the sampling days."	2023/01/16	2023/01/16
PRA000124	SAA009423	ST008	238232			"C-Green chromide1"	"Etroplus suratensis"	"Green chromide"	2014	9						Aisa	India	"Muttukadu Backwaters, Chennai"	12.8105		80.2477		Unknown	Plasma			94	g	12	cm																																	"Collected during wet seasons, but no rain before and during the sampling days."	2023/01/16	2023/01/16
PRA000124	SAA009424	ST008	13012			E-Catfish1	"Clarias spp."	"Freshwater catfish"	2014	9						Aisa	India	"Vrishabhavathi Reservoir, Bengaluru"	12.7606		77.4169		Unknown	Plasma			900	g	40.5	cm																																	"Collected during wet seasons, but no rain before and during the sampling days."	2023/01/16	2023/01/16
PRA000124	SAA009425	ST008	13012			E-Catfish2	"Clarias spp."	"Freshwater catfish"	2014	9						Aisa	India	"Vrishabhavathi Reservoir, Bengaluru"	12.7606		77.4169		Female	Plasma			2000	g	58.4	cm																																	"Collected during wet seasons, but no rain before and during the sampling days."	2023/01/16	2023/01/16
PRA000124	SAA009426	ST008	8139			F-Tilapia1	"Oreochromis spp."	Tilapia	2014	9						Aisa	India	"Gopahalli Lake, Bengaluru"	12.7302		77.4159		Unknown	Plasma			632	g	25.5	cm																																	"Collected during wet seasons, but no rain before and during the sampling days."	2023/01/16	2023/01/16
PRA000124	SAA009427	ST008	8139			F-Tilapia2	"Oreochromis spp."	Tilapia	2014	9						Aisa	India	"Gopahalli Lake, Bengaluru"	12.7302		77.4159		Female	Plasma			428	g	24.7	cm																																	"Collected during wet seasons, but no rain before and during the sampling days."	2023/01/16	2023/01/16
PRA000124	SAA009428	ST008	8139			F-Tilapia3	"Oreochromis spp."	Tilapia	2014	9						Aisa	India	"Gopahalli Lake, Bengaluru"	12.7302		77.4159		Unknown	Plasma			432	g	22.5	cm																																	"Collected during wet seasons, but no rain before and during the sampling days."	2023/01/16	2023/01/16
PRA000124	SAA009429	ST008	8139			F-Tilapia4	"Oreochromis spp."	Tilapia	2014	9						Aisa	India	"Gopahalli Lake, Bengaluru"	12.7302		77.4159		Unknown	Plasma			359	g	20.8	cm																																	"Collected during wet seasons, but no rain before and during the sampling days."	2023/01/16	2023/01/16
PRA000124	SAA009430	ST008	8139			F-Tilapia5	"Oreochromis spp."	Tilapia	2014	9						Aisa	India	"Gopahalli Lake, Bengaluru"	12.7302		77.4159		Female	Plasma			307	g	21	cm																																	"Collected during wet seasons, but no rain before and during the sampling days."	2023/01/16	2023/01/16
PRA000124	SAA009431	ST008	8139			F-Tilapia6	"Oreochromis spp."	Tilapia	2014	9						Aisa	India	"Gopahalli Lake, Bengaluru"	12.7302		77.4159		Female	Plasma			343	g	20.8	cm																																	"Collected during wet seasons, but no rain before and during the sampling days."	2023/01/16	2023/01/16
PRA000124	SAA009432	ST008	8139			F-Tilapia7	"Oreochromis spp."	Tilapia	2014	9						Aisa	India	"Gopahalli Lake, Bengaluru"	12.7302		77.4159		Female	Plasma			358	g	21	cm																																	"Collected during wet seasons, but no rain before and during the sampling days."	2023/01/16	2023/01/16
PRA000124	SAA009433	ST008	13012			E-Catfish3	"Clarias spp."	"Freshwater catfish"	2015	9						Aisa	India	"Vrishabhavathi Reservoir, Bengaluru"	12.7604		77.417		Male	Plasma			1900	g	50	cm																																	"Collected during wet seasons, but no rain before and during the sampling days."	2023/01/16	2023/01/16
PRA000124	SAA009434	ST008	13012			E-Catfish4	"Clarias spp."	"Freshwater catfish"	2015	9						Aisa	India	"Vrishabhavathi Reservoir, Bengaluru"	12.7604		77.417		Male	Plasma			1700	g	49	cm																																	"Collected during wet seasons, but no rain before and during the sampling days."	2023/01/16	2023/01/16
PRA000124	SAA009435	ST008	13012			E-Catfish5	"Clarias spp."	"Freshwater catfish"	2015	9						Aisa	India	"Vrishabhavathi Reservoir, Bengaluru"	12.7604		77.417		Female	Plasma			2100	g	51	cm																																	"Collected during wet seasons, but no rain before and during the sampling days."	2023/01/16	2023/01/16
PRA000124	SAA009436	ST008	13012			E-Catfish6	"Clarias spp."	"Freshwater catfish"	2015	9						Aisa	India	"Vrishabhavathi Reservoir, Bengaluru"	12.7604		77.417		Male	Plasma			2300	g	52.5	cm																																	"Collected during wet seasons, but no rain before and during the sampling days."	2023/01/16	2023/01/16
PRA000124	SAA009437	ST008	84645			H-Rohu1	"Labeo rohita"	Rohu	2015	9						Aisa	India	"Ulsoor Lake, Bengaluru"	12.9847		77.6218		Unknown	Plasma			192	g	19.6	cm																																	"Collected during wet seasons, but no rain before and during the sampling days."	2023/01/16	2023/01/16
PRA000124	SAA009438	ST008	8139			H-Tilapia1	"Oreochromis spp."	Tilapia	2015	9						Aisa	India	"Ulsoor Lake, Bengaluru"	12.9847		77.6218		Unknown	Plasma			148	g	16	cm																																	"Collected during wet seasons, but no rain before and during the sampling days."	2023/01/16	2023/01/16
PRA000124	SAA009439	ST008	8139			H-Tilapia2	"Oreochromis spp."	Tilapia	2015	9						Aisa	India	"Ulsoor Lake, Bengaluru"	12.9847		77.6218		Unknown	Plasma			304	g	19.7	cm																																	"Collected during wet seasons, but no rain before and during the sampling days."	2023/01/16	2023/01/16
PRA000124	SAA009440	ST008	8139			H-Tilapia3	"Oreochromis spp."	Tilapia	2015	9						Aisa	India	"Ulsoor Lake, Bengaluru"	12.9847		77.6218		Unknown	Plasma			135	g	15	cm																																	"Collected during wet seasons, but no rain before and during the sampling days."	2023/01/16	2023/01/16
PRA000124	SAA009441	ST008	8139			H-Tilapia4	"Oreochromis spp."	Tilapia	2015	9						Aisa	India	"Ulsoor Lake, Bengaluru"	12.9847		77.6218		Unknown	Plasma			157	g	16.5	cm																																	"Collected during wet seasons, but no rain before and during the sampling days."	2023/01/16	2023/01/16
PRA000124	SAA009442	ST008	8139			H-Tilapia5	"Oreochromis spp."	Tilapia	2015	9						Aisa	India	"Ulsoor Lake, Bengaluru"	12.9847		77.6218		Unknown	Plasma			163	g	16.5	cm																																	"Collected during wet seasons, but no rain before and during the sampling days."	2023/01/16	2023/01/16
PRA000124	SAA009443	ST008	8139			H-Tilapia6	"Oreochromis spp."	Tilapia	2015	9						Aisa	India	"Ulsoor Lake, Bengaluru"	12.9847		77.6218		Unknown	Plasma			157	g	16	cm																																	"Collected during wet seasons, but no rain before and during the sampling days."	2023/01/16	2023/01/16
PRA000124	SAA009444	ST008	8139			I-Tilapia1	"Oreochromis spp."	Tilapia	2015	1						Aisa	Indoneasia	"Danau Sunter Lake, Jakarta"	-6.1456		106.8812		Male	Plasma			455	g	22	cm																																	"Collected during wet seasons, but no rain before and during the sampling days."	2023/01/16	2023/01/16
PRA000124	SAA009445	ST008	8139			I-Tilapia2	"Oreochromis spp."	Tilapia	2015	1						Aisa	Indoneasia	"Danau Sunter Lake, Jakarta"	-6.1456		106.8812		Female	Plasma			907	g	28	cm																																	"Collected during wet seasons, but no rain before and during the sampling days."	2023/01/16	2023/01/16
PRA000124	SAA009446	ST008	8139			I-Tilapia3	"Oreochromis spp."	Tilapia	2015	1						Aisa	Indoneasia	"Danau Sunter Lake, Jakarta"	-6.1456		106.8812		Female	Plasma			461	g	22.6	cm																																	"Collected during wet seasons, but no rain before and during the sampling days."	2023/01/16	2023/01/16
PRA000124	SAA009447	ST008	8139			I-Tilapia4	"Oreochromis spp."	Tilapia	2015	1						Aisa	Indoneasia	"Danau Sunter Lake, Jakarta"	-6.1456		106.8812		Unknown	Plasma			483	g	22.5	cm																																	"Collected during wet seasons, but no rain before and during the sampling days."	2023/01/16	2023/01/16
PRA000124	SAA009448	ST008	8139			I-Tilapia5	"Oreochromis spp."	Tilapia	2015	1						Aisa	Indoneasia	"Danau Sunter Lake, Jakarta"	-6.1456		106.8812		Unknown	Plasma			699	g	24.5	cm																																	"Collected during wet seasons, but no rain before and during the sampling days."	2023/01/16	2023/01/16
PRA000124	SAA009449	ST008	8139			I-Tilapia6	"Oreochromis spp."	Tilapia	2015	1						Aisa	Indoneasia	"Danau Sunter Lake, Jakarta"	-6.1456		106.8812		Female	Plasma			728	g	27.8	cm																																	"Collected during wet seasons, but no rain before and during the sampling days."	2023/01/16	2023/01/16
PRA000124	SAA009450	ST008	8139			I-Tilapia7	"Oreochromis spp."	Tilapia	2015	1						Aisa	Indoneasia	"Danau Sunter Lake, Jakarta"	-6.1456		106.8812		Unknown	Plasma			422	g	22.4	cm																																	"Collected during wet seasons, but no rain before and during the sampling days."	2023/01/16	2023/01/16
PRA000124	SAA009451	ST008	8139			I-Tilapia8	"Oreochromis spp."	Tilapia	2015	1						Aisa	Indoneasia	"Danau Sunter Lake, Jakarta"	-6.1456		106.8812		Unknown	Plasma			598	g	23.3	cm																																	"Collected during wet seasons, but no rain before and during the sampling days."	2023/01/16	2023/01/16
PRA000124	SAA009452	ST008	8139			I-Tilapia9	"Oreochromis spp."	Tilapia	2015	1						Aisa	Indoneasia	"Danau Sunter Lake, Jakarta"	-6.1456		106.8812		Male	Plasma			748	g	26.5	cm																																	"Collected during wet seasons, but no rain before and during the sampling days."	2023/01/16	2023/01/16
PRA000124	SAA009453	ST008	8139			I-Tilapia10	"Oreochromis spp."	Tilapia	2015	1						Aisa	Indoneasia	"Danau Sunter Lake, Jakarta"	-6.1456		106.8812		Female	Plasma			371	g	20.2	cm																																	"Collected during wet seasons, but no rain before and during the sampling days."	2023/01/16	2023/01/16
PRA000124	SAA009454	ST008	164016			"I-Janitor fish1"	"Pterygoplichthys spp."	"Janitor fish/Sailfin catfish"	2015	1						Aisa	Indoneasia	"Danau Sunter Lake, Jakarta"	-6.1456		106.8812		Unknown	Plasma			356	g	24	cm																																	"Collected during wet seasons, but no rain before and during the sampling days."	2023/01/16	2023/01/16
PRA000124	SAA009455	ST008	164016			"I-Janitor fish 2"	"Pterygoplichthys spp."	"Janitor fish/Sailfin catfish"	2015	1						Aisa	Indoneasia	"Danau Sunter Lake, Jakarta"	-6.1456		106.8812		Unknown	Plasma			359	g	28.5	cm																																	"Collected during wet seasons, but no rain before and during the sampling days."	2023/01/16	2023/01/16
PRA000124	SAA009456	ST008	8139			J-Tilapia1	"Oreochromis spp."	Tilapia	2015	1						Aisa	Indoneasia	"Kemayoran Golf Lake, Jakarta"	-6.1375		106.8494		Female	Plasma			43	g	10.6	cm																																	"Collected during wet seasons, but no rain before and during the sampling days."	2023/01/16	2023/01/16
PRA000124	SAA009457	ST008	8139			J-Tilapia2	"Oreochromis spp."	Tilapia	2015	1						Aisa	Indoneasia	"Kemayoran Golf Lake, Jakarta"	-6.1375		106.8494		Unknown	Plasma			42	g	10.9	cm																																	"Collected during wet seasons, but no rain before and during the sampling days."	2023/01/16	2023/01/16
PRA000124	SAA009458	ST008	8139			J-Tilapia3	"Oreochromis spp."	Tilapia	2015	1						Aisa	Indoneasia	"Kemayoran Golf Lake, Jakarta"	-6.1375		106.8494		Unknown	Plasma			45	g	10.8	cm																																	"Collected during wet seasons, but no rain before and during the sampling days."	2023/01/16	2023/01/16
PRA000124	SAA009459	ST008	8139			J-Tilapia4	"Oreochromis spp."	Tilapia	2015	1						Aisa	Indoneasia	"Kemayoran Golf Lake, Jakarta"	-6.1375		106.8494		Unknown	Plasma			40	g	10.7	cm																																	"Collected during wet seasons, but no rain before and during the sampling days."	2023/01/16	2023/01/16
PRA000124	SAA009460	ST008	8139			J-Tilapia5	"Oreochromis spp."	Tilapia	2015	1						Aisa	Indoneasia	"Kemayoran Golf Lake, Jakarta"	-6.1375		106.8494		Unknown	Plasma			51	g	11.5	cm																																	"Collected during wet seasons, but no rain before and during the sampling days."	2023/01/16	2023/01/16
PRA000124	SAA009461	ST008	8139			J-Tilapia6	"Oreochromis spp."	Tilapia	2015	1						Aisa	Indoneasia	"Kemayoran Golf Lake, Jakarta"	-6.1375		106.8494		Unknown	Plasma			31	g	10.4	cm																																	"Collected during wet seasons, but no rain before and during the sampling days."	2023/01/16	2023/01/16
PRA000124	SAA009462	ST008	8139			J-Tilapia7	"Oreochromis spp."	Tilapia	2015	1						Aisa	Indoneasia	"Kemayoran Golf Lake, Jakarta"	-6.1375		106.8494		Unknown	Plasma			40	g	11.4	cm																																	"Collected during wet seasons, but no rain before and during the sampling days."	2023/01/16	2023/01/16
PRA000124	SAA009463	ST008	8139			J-Tilapia8	"Oreochromis spp."	Tilapia	2015	1						Aisa	Indoneasia	"Kemayoran Golf Lake, Jakarta"	-6.1375		106.8494		Unknown	Plasma			36	g	10.7	cm																																	"Collected during wet seasons, but no rain before and during the sampling days."	2023/01/16	2023/01/16
PRA000124	SAA009464	ST008	8139			J-Tilapia9	"Oreochromis spp."	Tilapia	2015	1						Aisa	Indoneasia	"Kemayoran Golf Lake, Jakarta"	-6.1375		106.8494		Unknown	Plasma			42	g	10.8	cm																																	"Collected during wet seasons, but no rain before and during the sampling days."	2023/01/16	2023/01/16
PRA000124	SAA009465	ST008	8000			K-Catfish1	"Pangasius spp."	"Shark catfish"	2015	1						Aisa	Indoneasia	"Waduk Sunter Utara Lake, Jakarta"	-6.1268		106.8725		Unknown	Plasma			86	g	17.9	cm																																	"Collected during wet seasons, but no rain before and during the sampling days."	2023/01/16	2023/01/16
PRA000124	SAA009466	ST008	64152			"K-Snakehead murrel"	"Channa striata"	"Snakehead murrel"	2015	1						Aisa	Indoneasia	"Waduk Sunter Utara Lake, Jakarta"	-6.1268		106.8725		Unknown	Plasma			82	g	18.7	cm																																	"Collected during wet seasons, but no rain before and during the sampling days."	2023/01/16	2023/01/16
PRA000124	SAA009467	ST008	8139			L-Tilapia1	"Oreochromis spp."	Tilapia	2015	1						Aisa	Indoneasia	"Waduk Sunter Utara Pond, Jakarta"	-6.1243		106.8696		Unknown	Plasma			126	g	14.5	cm																																	"Collected during wet seasons, but no rain before and during the sampling days."	2023/01/16	2023/01/16
PRA000124	SAA009468	ST008	8139			L-Tilapia2	"Oreochromis spp."	Tilapia	2015	1						Aisa	Indoneasia	"Waduk Sunter Utara Pond, Jakarta"	-6.1243		106.8696		Female	Plasma			124	g	14.6	cm																																	"Collected during wet seasons, but no rain before and during the sampling days."	2023/01/16	2023/01/16
PRA000124	SAA009469	ST008	8139			L-Tilapia3	"Oreochromis spp."	Tilapia	2015	1						Aisa	Indoneasia	"Waduk Sunter Utara Pond, Jakarta"	-6.1243		106.8696		Unknown	Plasma			173	g	17.1	cm																																	"Collected during wet seasons, but no rain before and during the sampling days."	2023/01/16	2023/01/16
PRA000124	SAA009470	ST008	8139			L-Tilapia4	"Oreochromis spp."	Tilapia	2015	1						Aisa	Indoneasia	"Waduk Sunter Utara Pond, Jakarta"	-6.1243		106.8696		Unknown	Plasma			168	g	16.3	cm																																	"Collected during wet seasons, but no rain before and during the sampling days."	2023/01/16	2023/01/16
PRA000124	SAA009471	ST008	8139			L-Tilapia5	"Oreochromis spp."	Tilapia	2015	1						Aisa	Indoneasia	"Waduk Sunter Utara Pond, Jakarta"	-6.1243		106.8696		Unknown	Plasma			117	g	14.4	cm																																	"Collected during wet seasons, but no rain before and during the sampling days."	2023/01/16	2023/01/16
PRA000124	SAA009472	ST008	8139			L-Tilapia6	"Oreochromis spp."	Tilapia	2015	1						Aisa	Indoneasia	"Waduk Sunter Utara Pond, Jakarta"	-6.1243		106.8696		Unknown	Plasma			124	g	14.3	cm																																	"Collected during wet seasons, but no rain before and during the sampling days."	2023/01/16	2023/01/16
PRA000124	SAA009473	ST008	8139			L-Tilapia7	"Oreochromis spp."	Tilapia	2015	1						Aisa	Indoneasia	"Waduk Sunter Utara Pond, Jakarta"	-6.1243		106.8696		Unknown	Plasma			101	g	13.3	cm																																	"Collected during wet seasons, but no rain before and during the sampling days."	2023/01/16	2023/01/16
PRA000124	SAA009474	ST008	8139			L-Tilapia8	"Oreochromis spp."	Tilapia	2015	1						Aisa	Indoneasia	"Waduk Sunter Utara Pond, Jakarta"	-6.1243		106.8696		Unknown	Plasma			291	g	19.9	cm																																	"Collected during wet seasons, but no rain before and during the sampling days."	2023/01/16	2023/01/16
PRA000124	SAA009475	ST008	8128			L-Tilapia9	"Oreochromis niloticus"	"Nile tilapia"	2015	1						Aisa	Indoneasia	"Waduk Sunter Utara Pond, Jakarta"	-6.1243		106.8696		Unknown	Plasma			120	g	14.4	cm																																	"Collected during wet seasons, but no rain before and during the sampling days."	2023/01/16	2023/01/16
PRA000124	SAA009476	ST008	8128			L-Tilapia10	"Oreochromis niloticus"	"Nile tilapia"	2015	1						Aisa	Indoneasia	"Waduk Sunter Utara Pond, Jakarta"	-6.1243		106.8696		Unknown	Plasma			139	g	14.7	cm																																	"Collected during wet seasons, but no rain before and during the sampling days."	2023/01/16	2023/01/16
PRA000124	SAA009477	ST008	164016			"L-Janitor fish1"	"Pterygoplichthys spp."	"Janitor fish/Sailfin catfish"	2015	1						Aisa	Indoneasia	"Waduk Sunter Utara Pond, Jakarta"	-6.1243		106.8696		Unknown	Plasma			241	g	22.5	cm																																	"Collected during wet seasons, but no rain before and during the sampling days."	2023/01/16	2023/01/16
PRA000124	SAA009478	ST008	8128			M-Tilapia1	"Oreochromis niloticus"	"Nile tilapia"	2015	1						Aisa	Indoneasia	"Situ Gintung Lake, Tangerang"	-6.3067		106.7639		Female	Plasma			209	g	17.3	cm																																	"Collected during wet seasons, but no rain before and during the sampling days."	2023/01/16	2023/01/16
PRA000124	SAA009479	ST008	8128			M-Tilapia2	"Oreochromis niloticus"	"Nile tilapia"	2015	1						Aisa	Indoneasia	"Situ Gintung Lake, Tangerang"	-6.3067		106.7639		Unknown	Plasma			153	g	16.3	cm																																	"Collected during wet seasons, but no rain before and during the sampling days."	2023/01/16	2023/01/16
PRA000124	SAA009480	ST008	8128			M-Tilapia3	"Oreochromis niloticus"	"Nile tilapia"	2015	1						Aisa	Indoneasia	"Situ Gintung Lake, Tangerang"	-6.3067		106.7639		Unknown	Plasma			156	g	16.1	cm																																	"Collected during wet seasons, but no rain before and during the sampling days."	2023/01/16	2023/01/16
PRA000124	SAA009481	ST008	8128			M-Tilapia4	"Oreochromis niloticus"	"Nile tilapia"	2015	1						Aisa	Indoneasia	"Situ Gintung Lake, Tangerang"	-6.3067		106.7639		Unknown	Plasma			182	g	16.9	cm																																	"Collected during wet seasons, but no rain before and during the sampling days."	2023/01/16	2023/01/16
PRA000124	SAA009482	ST008	8128			M-Tilapia5	"Oreochromis niloticus"	"Nile tilapia"	2015	1						Aisa	Indoneasia	"Situ Gintung Lake, Tangerang"	-6.3067		106.7639		Unknown	Plasma			132	g	15	cm																																	"Collected during wet seasons, but no rain before and during the sampling days."	2023/01/16	2023/01/16
PRA000124	SAA009483	ST008	8139			N-Tilapia1	"Oreochromis spp."	Tilapia	2015	1						Aisa	Indoneasia	"Situ Rawa Cipondoh, Tangerang"	-6.1948		106.6716		Unknown	Plasma			359	g	21.7	cm																																	"Collected during wet seasons, but no rain before and during the sampling days."	2023/01/16	2023/01/16
PRA000124	SAA009484	ST008	8139			N-Tilapia2	"Oreochromis spp."	Tilapia	2015	1						Aisa	Indoneasia	"Situ Rawa Cipondoh, Tangerang"	-6.1948		106.6716		Male	Plasma			550	g	26	cm																																	"Collected during wet seasons, but no rain before and during the sampling days."	2023/01/16	2023/01/16
PRA000124	SAA009485	ST008	8139			N-Tilapia3	"Oreochromis spp."	Tilapia	2015	1						Aisa	Indoneasia	"Situ Rawa Cipondoh, Tangerang"	-6.1948		106.6716		Unknown	Plasma			275	g	19.5	cm																																	"Collected during wet seasons, but no rain before and during the sampling days."	2023/01/16	2023/01/16
PRA000124	SAA009486	ST008	8139			N-Tilapia4	"Oreochromis spp."	Tilapia	2015	1						Aisa	Indoneasia	"Situ Rawa Cipondoh, Tangerang"	-6.1948		106.6716		Unknown	Plasma			421	g	23.2	cm																																	"Collected during wet seasons, but no rain before and during the sampling days."	2023/01/16	2023/01/16
PRA000124	SAA009487	ST008	8139			N-Tilapia5	"Oreochromis spp."	Tilapia	2015	1						Aisa	Indoneasia	"Situ Rawa Cipondoh, Tangerang"	-6.1948		106.6716		Unknown	Plasma			520	g	24.2	cm																																	"Collected during wet seasons, but no rain before and during the sampling days."	2023/01/16	2023/01/16
PRA000124	SAA009488	ST008	13012			R-Catfish1	"Clarias spp."	"Freshwater catfish"	2015	9						Aisa	Vietnam	"Yen So Lake, Hanoi"	20.9746		105.8651		Unknown	Plasma			286	g	28	cm																																	"Collected during wet seasons, but no rain before and during the sampling days."	2023/01/16	2023/01/16
PRA000124	SAA009489	ST008	8139			R-Tilapia1	"Oreochromis spp."	Tilapia	2015	9						Aisa	Vietnam	"Yen So Lake, Hanoi"	20.9746		105.8651		Unknown	Plasma			157	g	19	cm																																	"Collected during wet seasons, but no rain before and during the sampling days."	2023/01/16	2023/01/16
PRA000124	SAA009490	ST008	8139			R-Tilapia2	"Oreochromis spp."	Tilapia	2015	9						Aisa	Vietnam	"Yen So Lake, Hanoi"	20.9746		105.8651		Unknown	Plasma			214	g	17	cm																																	"Collected during wet seasons, but no rain before and during the sampling days."	2023/01/16	2023/01/16
PRA000124	SAA009491	ST008	8139			R-Tilapia3	"Oreochromis spp."	Tilapia	2015	9						Aisa	Vietnam	"Yen So Lake, Hanoi"	20.9746		105.8651		Unknown	Plasma			180	g	15.7	cm																																	"Collected during wet seasons, but no rain before and during the sampling days."	2023/01/16	2023/01/16
PRA000124	SAA009492	ST008	13095			R-Carp1	"Hypophthalmichthys molitrix"	"Silver carp"	2015	9						Aisa	Vietnam	"Yen So Lake, Hanoi"	20.9746		105.8651		Unknown	Plasma			253	g	25.8	cm																																	"Collected during wet seasons, but no rain before and during the sampling days."	2023/01/16	2023/01/16
PRA000124	SAA009493	ST008	7959			R-Carp2	"Ctenopharyngodon idella"	"Grass carp"	2015	9						Aisa	Vietnam	"Yen So Lake, Hanoi"	20.9746		105.8651		Unknown	Plasma			656	g	34.1	cm																																	"Collected during wet seasons, but no rain before and during the sampling days."	2023/01/16	2023/01/16
PRA000124	SAA009494	ST008	7959			R-Carp3	"Ctenopharyngodon idella"	"Grass carp"	2015	9						Aisa	Vietnam	"Yen So Lake, Hanoi"	20.9746		105.8651		Unknown	Plasma			500	g	31	cm																																	"Collected during wet seasons, but no rain before and during the sampling days."	2023/01/16	2023/01/16
PRA000124	SAA009495	ST008	172907			R-Carp4	"Cirrhinus molitorella"	"Mud carp"	2015	9						Aisa	Vietnam	"Yen So Lake, Hanoi"	20.9694		105.8588		Unknown	Plasma			234	g	23.2	cm																																	"Collected during wet seasons, but no rain before and during the sampling days."	2023/01/16	2023/01/16
PRA000124	SAA009496	ST008	13095			R-Carp5	"Hypophthalmichthys molitrix"	"Silver carp"	2015	9						Aisa	Vietnam	"Yen So Lake, Hanoi"	20.9694		105.8588		Unknown	Plasma			347	g	26.5	cm																																	"Collected during wet seasons, but no rain before and during the sampling days."	2023/01/16	2023/01/16
PRA000124	SAA009497	ST008	13095			R-Carp6	"Hypophthalmichthys molitrix"	"Silver carp"	2015	9						Aisa	Vietnam	"Yen So Lake, Hanoi"	20.9694		105.8588		Unknown	Plasma			250	g	26.5	cm																																	"Collected during wet seasons, but no rain before and during the sampling days."	2023/01/16	2023/01/16
PRA000124	SAA009498	ST008	7959			R-Carp7	"Ctenopharyngodon idella"	"Grass carp"	2015	9						Aisa	Vietnam	"Yen So Lake, Hanoi"	20.9694		105.8588		Unknown	Plasma			495	g	29	cm																																	"Collected during wet seasons, but no rain before and during the sampling days."	2023/01/16	2023/01/16
PRA000124	SAA009499	ST008	13095			R-Carp8	"Hypophthalmichthys molitrix"	"Silver carp"	2015	9						Aisa	Vietnam	"Yen So Lake, Hanoi"	20.9694		105.8588		Unknown	Plasma			371	g	28	cm																																	"Collected during wet seasons, but no rain before and during the sampling days."	2023/01/16	2023/01/16
PRA000124	SAA009500	ST008	13095			R-Carp9	"Hypophthalmichthys molitrix"	"Silver carp"	2015	9						Aisa	Vietnam	"Yen So Lake, Hanoi"	20.9694		105.8588		Unknown	Plasma			256	g	25.8	cm																																	"Collected during wet seasons, but no rain before and during the sampling days."	2023/01/16	2023/01/16
PRA000124	SAA009501	ST008	7959			R-Carp10	"Ctenopharyngodon idella"	"Grass carp"	2015	9						Aisa	Vietnam	"Yen So Lake, Hanoi"	20.9646		105.8516		Unknown	Plasma			792	g	36	cm																																	"Collected during wet seasons, but no rain before and during the sampling days."	2023/01/16	2023/01/16
PRA000124	SAA009502	ST008	172907			R-Carp11	"Cirrhinus molitorella"	"Mud carp"	2015	9						Aisa	Vietnam	"Yen So Lake, Hanoi"	20.9646		105.8516		Unknown	Plasma			378	g	27	cm																																	"Collected during wet seasons, but no rain before and during the sampling days."	2023/01/16	2023/01/16
PRA000124	SAA009503	ST008	7959			R-Carp12	"Ctenopharyngodon idella"	"Grass carp"	2015	9						Aisa	Vietnam	"Yen So Lake, Hanoi"	20.9646		105.8516		Unknown	Plasma			500	g	32.3	cm																																	"Collected during wet seasons, but no rain before and during the sampling days."	2023/01/16	2023/01/16
PRA000124	SAA009504	ST008	13095			R-Carp13	"Hypophthalmichthys molitrix"	"Silver carp"	2015	9						Aisa	Vietnam	"Yen So Lake, Hanoi"	20.9646		105.8516		Unknown	Plasma			357	g	28.6	cm																																	"Collected during wet seasons, but no rain before and during the sampling days."	2023/01/16	2023/01/16
PRA000124	SAA009505	ST008	13095			R-Carp14	"Hypophthalmichthys molitrix"	"Silver carp"	2015	9						Aisa	Vietnam	"Yen So Lake, Hanoi"	20.9646		105.8516		Unknown	Plasma			300	g	28	cm																																	"Collected during wet seasons, but no rain before and during the sampling days."	2023/01/16	2023/01/16
PRA000124	SAA009506	ST008	13095			R-Carp15	"Hypophthalmichthys molitrix"	"Silver carp"	2015	9						Aisa	Vietnam	"Yen So Lake, Hanoi"	20.9646		105.8516		Unknown	Plasma			340	g	29.1	cm																																	"Collected during wet seasons, but no rain before and during the sampling days."	2023/01/16	2023/01/16
PRA000124	SAA009507	ST008	13095			R-Carp16	"Hypophthalmichthys molitrix"	"Silver carp"	2015	9						Aisa	Vietnam	"Yen So Lake, Hanoi"	20.9646		105.8516		Unknown	Plasma			298	g	29	cm																																	"Collected during wet seasons, but no rain before and during the sampling days."	2023/01/16	2023/01/16
PRA000124	SAA009508	ST008	13095			R-Carp17	"Hypophthalmichthys molitrix"	"Silver carp"	2015	9						Aisa	Vietnam	"Yen So Lake, Hanoi"	20.9646		105.8516		Unknown	Plasma			342	g	28	cm																																	"Collected during wet seasons, but no rain before and during the sampling days."	2023/01/16	2023/01/16
PRA000124	SAA009509	ST008	13095			R-Carp18	"Hypophthalmichthys molitrix"	"Silver carp"	2015	9						Aisa	Vietnam	"Yen So Lake, Hanoi"	20.9646		105.8516		Unknown	Plasma			295	g	27.2	cm																																	"Collected during wet seasons, but no rain before and during the sampling days."	2023/01/16	2023/01/16
PRA000124	SAA009510	ST008	7962			S-Carp1	"Cyprinus carpio"	"Common carp"	2015	9						Aisa	Vietnam	"Da River, Hoa Binh"	20.8222		105.3378		Unknown	Plasma			774	g	31.5	cm																																	"Chosen as the control (unpoluted) site.; Collected during wet seasons, but no rain before and during the sampling days."	2023/01/16	2023/01/16
PRA000124	SAA009511	ST008	7962			S-Carp2	"Cyprinus carpio"	"Common carp"	2015	9						Aisa	Vietnam	"Da River, Hoa Binh"	20.8222		105.3378		Unknown	Plasma			340	g	23.8	cm																																	"Chosen as the control (unpoluted) site.; Collected during wet seasons, but no rain before and during the sampling days."	2023/01/16	2023/01/16
PRA000124	SAA009512	ST008	7962			S-Carp3	"Cyprinus carpio"	"Common carp"	2015	9						Aisa	Vietnam	"Da River, Hoa Binh"	20.8222		105.3378		Unknown	Plasma			370	g	26.4	cm																																	"Chosen as the control (unpoluted) site.; Collected during wet seasons, but no rain before and during the sampling days."	2023/01/16	2023/01/16
PRA000124	SAA009513	ST008	7962			S-Carp4	"Cyprinus carpio"	"Common carp"	2015	9						Aisa	Vietnam	"Da River, Hoa Binh"	20.8222		105.3378		Unknown	Plasma			960	g	38.7	cm																																	"Chosen as the control (unpoluted) site.; Collected during wet seasons, but no rain before and during the sampling days."	2023/01/16	2023/01/16
PRA000124	SAA009514	ST008	7962			S-Carp5	"Cyprinus carpio"	"Common carp"	2015	9						Aisa	Vietnam	"Da River, Hoa Binh"	20.8222		105.3378		Female	Plasma			703	g	32.8	cm																																	"Chosen as the control (unpoluted) site.; Collected during wet seasons, but no rain before and during the sampling days."	2023/01/16	2023/01/16
PRA000124	SAA009515	ST008	7962			S-Carp6	"Cyprinus carpio"	"Common carp"	2015	9						Aisa	Vietnam	"Da River, Hoa Binh"	20.8222		105.3378		Unknown	Plasma			444	g	28.4	cm																																	"Chosen as the control (unpoluted) site.; Collected during wet seasons, but no rain before and during the sampling days."	2023/01/16	2023/01/16
PRA000124	SAA009516	ST008	7962			S-Carp7	"Cyprinus carpio"	"Common carp"	2015	9						Aisa	Vietnam	"Da River, Hoa Binh"	20.8222		105.3378		Unknown	Plasma			779	g	32	cm																																	"Chosen as the control (unpoluted) site.; Collected during wet seasons, but no rain before and during the sampling days."	2023/01/16	2023/01/16
PRA000124	SAA009517	ST008	7962			S-Carp8	"Cyprinus carpio"	"Common carp"	2015	9						Aisa	Vietnam	"Da River, Hoa Binh"	20.8222		105.3378		Unknown	Plasma			795	g	34.8	cm																																	"Chosen as the control (unpoluted) site.; Collected during wet seasons, but no rain before and during the sampling days."	2023/01/16	2023/01/16
PRA000124	SAA009518	ST008	7962			S-Carp9	"Cyprinus carpio"	"Common carp"	2015	9						Aisa	Vietnam	"Da River, Hoa Binh"	20.8222		105.3378		Unknown	Plasma			459	g	26.6	cm																																	"Chosen as the control (unpoluted) site.; Collected during wet seasons, but no rain before and during the sampling days."	2023/01/16	2023/01/16
PRA000124	SAA009519	ST008	7962			S-Carp10	"Cyprinus carpio"	"Common carp"	2015	9						Aisa	Vietnam	"Da River, Hoa Binh"	20.8222		105.3378		Female	Plasma			428	g	27.7	cm																																	"Chosen as the control (unpoluted) site.; Collected during wet seasons, but no rain before and during the sampling days."	2023/01/16	2023/01/16
